Hourly Data Report for October 07, 2016

TORONTO CITY
ONTARIO

43°40'00.000" N
79°24'00.000" W
112.50 m
6158355
71508
XTO

Download Data

Hourly Data (October 2016)
Hourly Data Report for October 7, 2016
TIME
LST
Temp Definition
°C
Dew Point Definition
°C
Rel Hum Definition
%
Precip. Amount Definition
mm

Wind Dir Definition
10's deg

Wind Spd Definition
km/h
Visibility Definition
km
Stn Press Definition
kPa
Hmdx Definition


Wind Chill Definition


Weather Definition


00:00 17.9 14.5 81 0.0 LegendMM LegendMM   100.92     LegendNANA
01:00 17.8 14.6 82 0.0 LegendMM LegendMM   100.88     LegendNANA
02:00 17.7 14.8 83 0.0 LegendMM LegendMM   100.84     LegendNANA
03:00 17.5 15.1 86 0.0 LegendMM LegendMM   100.86     LegendNANA
04:00 17.2 15.2 89 0.0 LegendMM LegendMM   100.87     LegendNANA
05:00 16.2 14.4 89 0.0 LegendMM LegendMM   100.85     LegendNANA
06:00 15.6 14.2 91 0.0 LegendMM LegendMM   100.82     LegendNANA
07:00 16.7 15.2 91 0.0 LegendMM LegendMM   100.85     LegendNANA
08:00 17.8 14.6 82 0.0 LegendMM LegendMM   100.83     LegendNANA
09:00 18.7 13.9 74 0.0 LegendMM LegendMM   100.83     LegendNANA
10:00 19.1 14.2 73 0.0 LegendMM LegendMM   100.79     LegendNANA
11:00 19.5 13.7 69 0.0 LegendMM LegendMM   100.73     LegendNANA
12:00 20.9 13.8 64 0.0 LegendMM LegendMM   100.66     LegendNANA
13:00 21.7 13.3 59 0.0 LegendMM LegendMM   100.58 25   LegendNANA
14:00 21.9 13.0 57 0.0 LegendMM LegendMM   100.52 25   LegendNANA
15:00 20.6 14.2 67 0.0 LegendMM LegendMM   100.41     LegendNANA
16:00 19.7 14.3 71 0.0 LegendMM LegendMM   100.39     LegendNANA
17:00 19.5 14.7 74 0.0 LegendMM LegendMM   100.43     LegendNANA
18:00 18.9 14.3 75 0.0 LegendMM LegendMM   100.33     LegendNANA
19:00 17.8 14.4 81 0.0 LegendMM LegendMM   100.35     LegendNANA
20:00 17.3 14.5 83 0.0 LegendMM LegendMM   100.33     LegendNANA
21:00 17.4 14.5 83 0.0 LegendMM LegendMM   100.26     LegendNANA
22:00 17.7 14.2 80 0.0 LegendMM LegendMM   100.25     LegendNANA
23:00 18.7 14.0 74 0.0 LegendMM LegendMM   100.20     LegendNANA

Notes on Data Quality.

Legend

  • E = Estimated
  • M = Missing
  • NA = Not Available*
  • [empty] = Indicates an unobserved value
Date modified: